Zurück zum Katalog

COSMOS 397 DEB *

AktivLEO
NORAD 5414·DEBRIS·🇷🇺 Russia

Gestartet Feb 25, 1971 von Baikonur Cosmodrome

Loading…

Nächste Überflüge (nächste 24 Stunden)

TLE

AktuellSource: Space-Track

Epoche: Sep 13, 2026, 13:37 UTC

1  5414U 71015BL  26256.56753553  .00000113  00000-0  12000-3 0  9999
2  5414  66.7670 193.5776 0083342 185.2664 174.7553 14.03078755837705

Verfolge COSMOS 397 DEB * in Echtzeit mit AllMySat

Download on the App Store